Regional Weather Roundup
Issued by NWS

Home | Current Version | Previous Version | Graphics & Text | Print | Product List | Glossary On
Versions: 1 2 3 4 5 6 7 8 9 10 11 12 13 14 15 16 17 18 19 20 21 22 23 24 25 26 27
000
ASUS43 KDMX 200007
RWRIA

WEATHER ROUNDUP FOR IOWA
NATIONAL WEATHER SERVICE DES MOINES IA
700 PM CDT SAT APR 19 2014

NOTE: "FAIR" INDICATES FEW OR NO CLOUDS BELOW 12,000 FEET WITH NO
SIGNIFICANT WEATHER AND/OR OBSTRUCTIONS TO VISIBILITY.

* - THESE STATIONS ARE NOT NWS STATIONS...THUS NOT UNDER NWS
QUALITY CONTROL.  THEY ALSO DO NOT REPORT WEATHER SUCH
AS PRECIPITATION OR FOG.

IAZ001>003-012>014-020>022-031>034-043>046-200100-
   NORTHWEST IOWA

CITY           SKY/WX    TMP DP  RH WIND       PRES   REMARKS
CARROLL *      CLOUDY    73  43  33 S15G21    30.00R
CHEROKEE *     CLOUDY    72  46  40 S8        29.97S
DENISON *      CLOUDY    75  43  31 S13       29.97S
LE MARS *      CLOUDY    70  48  46 CALM      29.98R
ORANGE CITY *  PTSUNNY   70  46  43 W5        29.98S
SHELDON *      CLOUDY    70  48  46 W5        29.97S
SIOUX CITY     CLOUDY    71  49  45 N7        29.97R
6HR MIN TEMP:  71; 6HR MAX TEMP:  79;

SPENCER        CLOUDY    68  48  48 SW5       29.98R
6HR MIN TEMP:  68; 6HR MAX TEMP:  77;

STORM LAKE *   CLOUDY    72  45  37 SW9       29.99S
$$

IAZ055>058-069>071-079>083-090>094-200100-
   SOUTHWEST IOWA

CITY           SKY/WX    TMP DP  RH WIND       PRES   REMARKS
ATLANTIC *     SUNNY     75  43  31 S14       29.99S
AUDUBON *      SUNNY     73  34  23 S12       30.01S
CLARINDA *     SUNNY     75  45  33 S17       30.02S
COUNCIL BLFS * CLOUDY    75  46  35 S15G22    29.96S
CRESTON *      SUNNY     72  45  37 S16       30.05R
HARLAN  *      CLOUDY    75  45  33 S12G18    30.02R
LAMONI         MOSUNNY   73  43  33 S14G23    30.06R
6HR MIN TEMP:  72; 6HR MAX TEMP:  77;

RED OAK *      SUNNY     75  45  33 S20       29.99S
SHENANDOAH *   PTSUNNY   77  43  29 S18       30.00R
$$

IAZ047>049-059>061-072>074-084-200100-
   CENTRAL IOWA

CITY           SKY/WX    TMP DP  RH WIND       PRES   REMARKS
AMES           CLOUDY    72  43  35 S14       30.03S
6HR MIN TEMP:  70; 6HR MAX TEMP:  76;

ANKENY *       PTSUNNY   73  43  33 S15G21    30.04S
CHARITON *     CLEAR     73  45  35 S16G24    30.07R
DES MOINES     PTSUNNY   74  42  31 S12G20    30.05R
6HR MIN TEMP:  73; 6HR MAX TEMP:  78;

GRINNELL*      MOCLDY    72  43  35 S14G23    30.08R
KNOXVILLE *    CLEAR     73  43  33 S13G20    30.07R
MARSHALLTOWN   MOCLDY    70  43  37 S16       30.05R
6HR MIN TEMP:  67; 6HR MAX TEMP:  75;

NEWTON *       CLEAR     72  43  35 S13G18    30.07R
PELLA *        PTCLDY    73  45  35 S13       30.08R
PERRY *          N/A     75  36  23 S17G25    30.01S
$$

IAZ004>006-015-016-023>025-035-036-200100-
   NORTH CENTRAL IOWA

CITY           SKY/WX    TMP DP  RH WIND       PRES   REMARKS
ALGONA *       CLOUDY    72  43  35 SW14      29.99S
CLARION *      CLOUDY    72  41  33 S18       30.01S
ESTHERVILLE    CLOUDY    69  49  48 W6        29.97S
6HR MIN TEMP:  69; 6HR MAX TEMP:  77;

FORT DODGE *   CLOUDY    73  43  33 S18       30.02R
MASON CITY     PTSUNNY   70  45  40 S15       30.02S
6HR MIN TEMP:  65; 6HR MAX TEMP:  76;

FOREST CITY *  CLOUDY    70  45  40 S13       30.00R
IOWA FALLS *   MOCLDY    70  43  37 S9        30.05R
$$

IAZ007>011-017>019-026>030-037>042-050>054-066-200100-
   NORTHEAST IOWA

CITY           SKY/WX    TMP DP  RH WIND       PRES   REMARKS
CEDAR RAPIDS   MOCLDY    70  41  34 S14       30.08F
6HR MIN TEMP:  66; 6HR MAX TEMP:  75;

CHARLES CITY * MOCLDY    70  43  37 S15G21    30.05S
CLINTON *      PTCLDY    66  34  30 S13       30.17S
DECORAH *      MOCLDY    70  41  35 S10       30.06S
DUBUQUE        MOCLDY    66  38  35 S15       30.12F
6HR MIN TEMP:  61; 6HR MAX TEMP:  70;

MONTICELLO *   CLEAR     68  41  37 S15       30.10F
OELWEIN *      CLEAR    N/A N/A N/A S20       30.08S
WATERLOO       MOCLDY    72  43  35 S16G24    30.05S
6HR MIN TEMP:  65; 6HR MAX TEMP:  74;

$$

IAZ064-065-067-068-078-200100-
   EAST CENTRAL IOWA

CITY           SKY/WX    TMP DP  RH WIND       PRES   REMARKS
DAVENPORT      PTCLDY    70  32  24 S16       30.14F
6HR MIN TEMP:  68; 6HR MAX TEMP:  75;

IOWA CITY      MOCLDY    70  42  36 S13       30.11F
6HR MIN TEMP:  67; 6HR MAX TEMP:  74;

MT. PLEASANT * CLEAR     72  36  26 SE12      30.11F
MUSCATINE *    CLEAR     72  39  30 SE10G16   30.12S
QUAD CITIES    MOCLDY    70  33  25 S12G21    30.13S
6HR MIN TEMP:  69; 6HR MAX TEMP:  74;

$$

IAZ062-063-075>077-085>089-095>099-200100-
   SOUTHEAST IOWA

CITY           SKY/WX    TMP DP  RH WIND       PRES   REMARKS
BURLINGTON     PTCLDY    71  40  32 SE10      30.12S
6HR MIN TEMP:  69; 6HR MAX TEMP:  75;

FAIRFIELD *    CLEAR     72  41  33 S13G20    30.09F
FORT MADISON * CLEAR     72  37  28 S7        30.13S
KEOKUK *       CLEAR     72  39  30 SE12      30.11S
OSKALOOSA *      N/A     73  42  32 S17G23    30.08S
CENTERVILLE *  CLEAR     72  45  37 S10       30.10R
OTTUMWA        PTCLDY    73  40  30 S15       30.08S
6HR MIN TEMP:  71; 6HR MAX TEMP:  76;

WASHINGTON *   CLEAR     70  41  35 SE12      30.10F
$$

ABBREVIATIONS USED IN REMARKS
   TC - TEMPERATURES IN CELSIUS
  WCI - WIND CHILL INDEX
   HX - HEAT INDEX
  VSB - VISIBILITY
$$




USA.gov is the U.S. government's official web portal to all federal, state and local government web resources and services.